When you browse on this site, cookies collect data to enhance your experience and personalize the content and advertising you see.
Visit our Privacy Policy to learn more. By continuing to use the site, you agree to this use of cookies and data.
  • In Hungary
  • List of Countries
  • For 7 days
  • Water Temperature
  • Satellite Maps
  • Weather Map
  • News
  • Weather Widgets
  • user-avatar
    Login

    Hourly Weather Drobeta-Turnu Severin

    Today, 25 March, Monday

    Time Temperature Precipitation Wind Pressure Humidity
    00:00 +12°C° 0 mm 1 mps 756 mmHg 61%
    01:00 +12°C° 0 mm 1 mps 755 mmHg 62%
    02:00 +11°C° 0 mm 1 mps 754 mmHg 60%
    03:00 +11°C° 0 mm 1 mps 754 mmHg 60%
    04:00 +11°C° 0 mm 1 mps 754 mmHg 60%
    05:00 +10°C° 0 mm 1 mps 753 mmHg 60%
    06:00 +11°C° 0 mm 1 mps 753 mmHg 58%
    07:00 +12°C° 0 mm 1 mps 753 mmHg 55%
    08:00 +13°C° 0 mm 1 mps 753 mmHg 51%
    09:00 +15°C° 0 mm 1 mps 752 mmHg 45%
    10:00 +18°C° 0 mm 1 mps 752 mmHg 39%
    11:00 +20°C° 0 mm 1 mps 752 mmHg 33%
    12:00 +20°C° 0 mm 2 mps 751 mmHg 31%
    13:00 +22°C° 0 mm 3 mps 751 mmHg 28%
    14:00 +23°C° 0 mm 4 mps 750 mmHg 26%
    15:00 +22°C° 0 mm 4 mps 750 mmHg 29%
    16:00 +21°C° 0 mm 4 mps 750 mmHg 32%
    17:00 +21°C° 0 mm 5 mps 749 mmHg 36%
    18:00 +18°C° 0 mm 4 mps 749 mmHg 42%
    19:00 +16°C° 0 mm 3 mps 749 mmHg 49%
    20:00 +13°C° 0 mm 3 mps 749 mmHg 56%
    21:00 +14°C° 0 mm 2 mps 750 mmHg 57%
    22:00 +13°C° 0 mm 2 mps 750 mmHg 59%
    23:00 +12°C° 0 mm 2 mps 750 mmHg 60%

    Tomorrow, 26 March, Tuesday

    Time Temperature Precipitation Wind Pressure Humidity
    00:00 +12°C° 0 mm 2 mps 751 mmHg 61%
    01:00 +11°C° 0 mm 3 mps 751 mmHg 62%
    02:00 +10°C° 0 mm 3 mps 752 mmHg 63%
    03:00 +10°C° 0 mm 3 mps 752 mmHg 65%
    04:00 +10°C° 0 mm 3 mps 752 mmHg 68%
    05:00 +9°C° 0 mm 3 mps 753 mmHg 70%
    06:00 +8°C° 0 mm 4 mps 753 mmHg 67%
    07:00 +10°C° 0 mm 4 mps 754 mmHg 64%
    08:00 +10°C° 0 mm 4 mps 755 mmHg 61%
    09:00 +11°C° 0 mm 4 mps 755 mmHg 55%
    10:00 +13°C° 0 mm 4 mps 755 mmHg 48%
    11:00 +14°C° 0 mm 4 mps 755 mmHg 41%
    12:00 +15°C° 0 mm 4 mps 755 mmHg 38%
    13:00 +15°C° 0 mm 4 mps 755 mmHg 35%
    14:00 +16°C° 0 mm 5 mps 755 mmHg 32%
    15:00 +16°C° 0 mm 5 mps 755 mmHg 33%
    16:00 +15°C° 0 mm 5 mps 755 mmHg 33%
    17:00 +15°C° 0 mm 5 mps 755 mmHg 34%
    18:00 +13°C° 0 mm 5 mps 756 mmHg 38%
    19:00 +12°C° 0 mm 4 mps 757 mmHg 42%
    20:00 +11°C° 0 mm 4 mps 757 mmHg 46%
    21:00 +10°C° 0 mm 4 mps 758 mmHg 49%
    22:00 +9°C° 0 mm 3 mps 758 mmHg 52%
    23:00 +8°C° 0 mm 3 mps 759 mmHg 55%

    Day after tomorrow, 27 March, Wednesday

    Time Temperature Precipitation Wind Pressure Humidity
    00:00 +8°C° 0 mm 3 mps 759 mmHg 56%
    01:00 +7°C° 0 mm 3 mps 759 mmHg 58%
    02:00 +5°C° 0 mm 3 mps 759 mmHg 59%
    03:00 +5°C° 0 mm 3 mps 759 mmHg 60%
    04:00 +4°C° 0 mm 3 mps 759 mmHg 61%
    05:00 +4°C° 0 mm 3 mps 759 mmHg 62%
    06:00 +5°C° 0 mm 3 mps 760 mmHg 61%
    07:00 +5°C° 0 mm 3 mps 760 mmHg 60%
    08:00 +7°C° 0 mm 3 mps 760 mmHg 59%
    09:00 +9°C° 0 mm 3 mps 760 mmHg 52%
    10:00 +10°C° 0 mm 4 mps 761 mmHg 45%
    11:00 +12°C° 0 mm 4 mps 761 mmHg 38%
    12:00 +13°C° 0 mm 4 mps 761 mmHg 37%
    13:00 +14°C° 0 mm 4 mps 760 mmHg 36%
    14:00 +14°C° 0 mm 4 mps 760 mmHg 35%
    15:00 +14°C° 0 mm 4 mps 760 mmHg 35%
    16:00 +14°C° 0 mm 3 mps 760 mmHg 35%
    17:00 +14°C° 0 mm 3 mps 760 mmHg 35%
    18:00 +12°C° 0 mm 3 mps 760 mmHg 37%
    19:00 +11°C° 0 mm 3 mps 761 mmHg 40%
    20:00 +9°C° 0 mm 3 mps 762 mmHg 42%
    21:00 +9°C° 0 mm 3 mps 762 mmHg 43%
    22:00 +9°C° 0 mm 3 mps 762 mmHg 43%
    23:00 +8°C° 0 mm 2 mps 763 mmHg 43%

    28 March, Thursday

    Time Temperature Precipitation Wind Pressure Humidity
    00:00 +8°C° 0 mm 3 mps 763 mmHg 51%
    01:00 +7°C° 0 mm 4 mps 763 mmHg 58%
    02:00 +7°C° 0 mm 4 mps 763 mmHg 65%
    03:00 +6°C° 0 mm 4 mps 764 mmHg 64%
    04:00 +7°C° 0 mm 3 mps 764 mmHg 62%
    05:00 +7°C° 0 mm 3 mps 764 mmHg 60%
    06:00 +7°C° 0 mm 3 mps 764 mmHg 59%
    07:00 +7°C° 0 mm 2 mps 764 mmHg 57%
    08:00 +7°C° 0 mm 2 mps 764 mmHg 56%
    09:00 +9°C° 0 mm 2 mps 764 mmHg 53%
    10:00 +10°C° 0 mm 2 mps 764 mmHg 49%
    11:00 +12°C° 0 mm 2 mps 765 mmHg 46%
    12:00 +13°C° 0 mm 2 mps 764 mmHg 44%
    13:00 +14°C° 0 mm 1 mps 764 mmHg 41%
    14:00 +15°C° 0 mm 1 mps 763 mmHg 39%
    15:00 +14°C° 0 mm 1 mps 763 mmHg 39%
    16:00 +14°C° 0 mm 1 mps 763 mmHg 39%
    17:00 +14°C° 0 mm 1 mps 763 mmHg 39%
    18:00 +13°C° 0 mm 1 mps 763 mmHg 42%
    19:00 +12°C° 0 mm 1 mps 763 mmHg 45%
    20:00 +10°C° 0 mm 2 mps 764 mmHg 48%
    21:00 +10°C° 0 mm 1 mps 764 mmHg 50%
    22:00 +10°C° 0 mm 1 mps 765 mmHg 52%
    23:00 +9°C° 0 mm 1 mps 765 mmHg 55%

    29 March, Friday

    Time Temperature Precipitation Wind Pressure Humidity
    00:00 +8°C° 0 mm 2 mps 765 mmHg 56%
    01:00 +8°C° 0 mm 3 mps 766 mmHg 58%
    02:00 +8°C° 0 mm 3 mps 766 mmHg 59%
    03:00 +7°C° 0 mm 3 mps 766 mmHg 60%
    04:00 +7°C° 0 mm 2 mps 766 mmHg 61%
    05:00 +6°C° 0 mm 2 mps 766 mmHg 61%
    06:00 +6°C° 0 mm 2 mps 767 mmHg 59%
    07:00 +6°C° 0 mm 2 mps 767 mmHg 58%
    08:00 +7°C° 0 mm 2 mps 767 mmHg 56%
    09:00 +8°C° 0 mm 2 mps 767 mmHg 50%
    10:00 +9°C° 0 mm 2 mps 767 mmHg 44%
    11:00 +10°C° 0 mm 2 mps 767 mmHg 39%
    12:00 +12°C° 0 mm 2 mps 767 mmHg 37%
    13:00 +13°C° 0 mm 1 mps 766 mmHg 36%
    14:00 +14°C° 0 mm 1 mps 765 mmHg 34%
    15:00 +14°C° 0 mm 2 mps 765 mmHg 35%
    16:00 +14°C° 0 mm 2 mps 765 mmHg 36%
    17:00 +13°C° 0 mm 3 mps 764 mmHg 37%
    18:00 +13°C° 0 mm 2 mps 764 mmHg 42%
    19:00 +10°C° 0 mm 2 mps 765 mmHg 46%
    20:00 +9°C° 0 mm 2 mps 765 mmHg 51%
    21:00 +8°C° 0 mm 2 mps 765 mmHg 53%
    22:00 +9°C° 0 mm 1 mps 765 mmHg 56%
    23:00 +8°C° 0 mm 1 mps 765 mmHg 58%

    30 March, Saturday

    Time Temperature Precipitation Wind Pressure Humidity
    00:00 +8°C° 0 mm 1 mps 764 mmHg 60%
    01:00 +7°C° 0 mm 1 mps 764 mmHg 61%
    02:00 +7°C° 0 mm 1 mps 764 mmHg 62%
    03:00 +7°C° 0 mm 1 mps 764 mmHg 63%
    04:00 +7°C° 0 mm 1 mps 764 mmHg 64%
    05:00 +6°C° 0 mm 1 mps 764 mmHg 65%
    06:00 +7°C° 0 mm 1 mps 764 mmHg 63%
    07:00 +8°C° 0 mm 1 mps 764 mmHg 61%
    08:00 +9°C° 0 mm 1 mps 764 mmHg 59%
    09:00 +11°C° 0 mm 1 mps 763 mmHg 52%
    10:00 +13°C° 0 mm 2 mps 763 mmHg 45%
    11:00 +15°C° 0 mm 2 mps 763 mmHg 39%
    12:00 +17°C° 0 mm 2 mps 762 mmHg 36%
    13:00 +18°C° 0 mm 3 mps 761 mmHg 34%
    14:00 +19°C° 0 mm 3 mps 761 mmHg 32%
    15:00 +19°C° 0 mm 3 mps 760 mmHg 33%
    16:00 +19°C° 0 mm 3 mps 760 mmHg 35%
    17:00 +19°C° 0 mm 3 mps 759 mmHg 36%
    18:00 +17°C° 0 mm 3 mps 759 mmHg 43%
    19:00 +14°C° 0 mm 3 mps 759 mmHg 49%
    20:00 +13°C° 0 mm 2 mps 759 mmHg 56%
    21:00 +12°C° 0 mm 2 mps 759 mmHg 58%
    22:00 +12°C° 0 mm 2 mps 759 mmHg 60%
    23:00 +10°C° 0 mm 2 mps 759 mmHg 63%
    Show more